Location: Amsterdam
(30.7274°N, 84.4357°W)
Time: 04:37:12
(UTC+00:00)

MOZHAYETS 4 - Pass Details

Date: 16 March 2026
Orbit: 642 x 659 km, 98.3° (Epoch: 15 April)

Event Time Altitude Azimuth Distance (km) Brightness Sun altitude
Rises 10:26:08 0° 156° (SSE) 2,973 11.3 -18.0°
Reaches altitude 10° 10:28:22 10° 152° (SSE) 2,065 10.5 -17.6°
Maximum altitude 10:32:46 55° 75° (ENE) 795 8.5 -16.6°
Drops below altitude 10° 10:37:11 10° 358° (N) 2,075 10.3 -15.7°
Sets 10:39:26 0° 354° (N) 2,989 11.1 -15.2°
